GFSSE_700_rhum_282.txt.gz
RH
35 16 15 14 9 9 11 12 13 12 12 12 12 39 79 83 69 58 32 14 7 6 6 5 5 4 4 4 3 4 6 6 10 25 63 93 62 89 71 42 56 69 66
36 32 10 11 8 9 11 12 13 12 11 10 12 20 67 74 59 33 19 11 7 5 5 5 5 4 4 4 3 4 4 3 4 9 25 41 67 85 54 73 67 66 65
39 40 28 8 8 9 11 12 12 11 11 10 9 18 30 78 72 79 45 8 7 5 5 5 4 4 4 4 3 3 4 4 4 5 8 10 13 27 73 72 63 61 64
38 39 37 17 8 9 11 12 12 11 9 10 9 14 31 45 45 52 22 9 6 4 5 5 4 3 3 3 3 4 4 4 4 4 6 15 19 31 82 73 52 64 67
33 40 38 36 10 8 11 12 12 10 8 6 6 8 21 28 22 16 10 8 4 4 5 5 5 4 2 3 3 4 4 4 4 4 4 6 11 42 51 42 34 29 22
36 44 43 37 22 8 10 12 11 9 7 5 5 5 5 9 16 12 7 5 4 4 5 5 4 4 2 2 3 3 4 5 5 5 4 5 7 14 14 15 26 24 9
40 41 40 34 24 8 8 11 12 9 8 6 5 5 5 4 4 4 4 4 4 4 4 5 5 4 3 2 2 3 4 4 5 4 4 5 5 5 6 6 7 7 7
40 39 35 34 27 16 8 10 12 9 8 7 6 5 5 5 4 4 4 4 4 4 4 5 5 4 3 2 2 3 3 4 4 3 4 5 5 6 6 6 6 7 7
41 40 39 35 34 26 13 9 11 11 8 8 7 6 6 5 5 5 4 4 4 4 4 5 5 5 4 3 2 2 2 3 3 3 5 5 6 6 6 7 6 6 7
34 43 42 42 40 35 25 11 9 11 9 8 9 7 5 4 4 4 4 4 4 4 5 5 5 5 5 4 3 2 2 2 3 5 4 5 6 7 7 6 6 7 8
18 32 39 42 41 42 36 22 12 11 10 9 10 10 8 6 4 4 4 4 4 4 5 5 5 5 5 4 4 3 3 4 4 4 5 6 6 7 7 6 7 8 8
16 19 18 25 38 40 42 38 25 14 12 10 10 11 11 10 8 5 4 4 4 4 5 6 5 5 5 5 4 4 4 5 5 5 6 6 6 7 7 8 8 9 9
18 19 16 16 16 36 39 43 41 27 14 12 11 11 12 12 12 11 8 6 5 5 5 6 6 6 6 6 5 5 4 4 5 6 6 7 9 9 8 8 9 9 9
14 16 15 13 14 12 36 40 42 42 22 14 12 12 12 13 14 14 12 10 8 6 6 6 6 6 7 7 6 5 5 5 6 6 6 7 13 9 8 9 9 9 10
17 18 14 42 66 37 16 30 40 41 45 21 15 13 13 13 14 14 14 12 9 8 7 7 7 7 7 7 7 6 6 6 6 6 7 8 8 8 9 9 10 10 10
16 14 13 18 88 99 93 50 27 43 44 48 31 16 14 13 14 13 11 10 10 9 8 7 7 7 8 8 8 8 8 7 7 7 7 8 8 8 9 9 10 11 10
15 14 13 12 45 96 96 100 91 48 77 52 48 30 20 15 14 14 12 9 8 8 8 7 7 8 8 8 8 8 9 8 8 8 8 8 8 9 10 10 11 10 10
16 16 12 16 25 74 99 100 99 68 97 84 94 55 39 22 16 14 14 12 9 7 7 7 7 9 9 9 9 10 10 10 10 10 9 9 9 9 10 10 11 12 11
19 19 15 13 18 44 98 100 100 97 80 90 95 71 62 43 29 19 15 14 12 9 7 7 8 9 10 10 10 10 11 11 11 11 11 11 12 12 14 12 13 13 13
17 19 18 16 14 34 86 98 91 80 72 80 83 86 70 66 58 36 20 16 14 11 9 8 8 10 10 10 11 11 12 12 12 12 12 13 14 17 16 16 17 18 16
17 20 20 18 16 17 76 78 80 82 91 92 89 73 98 94 85 77 45 22 16 14 11 9 9 9 10 11 12 12 12 12 13 13 13 14 31 27 26 33 23 21 19
18 19 22 20 19 17 20 80 80 77 99 96 82 84 86 96 89 96 99 66 26 17 14 11 10 9 10 12 13 14 13 12 12 13 14 14 18 90 47 26 31 23 24
23 22 23 23 19 18 15 30 81 78 86 91 73 80 94 99 100 95 95 95 72 29 18 14 12 11 11 14 16 15 13 11 13 14 15 18 17 18 74 51 27 36 23
28 29 26 20 20 21 19 60 78 80 72 56 48 100 99 100 94 77 84 94 100 85 33 17 14 14 14 13 16 16 15 14 17 16 18 22 18 24 42 72 42 31 33
40 35 31 28 21 22 23 61 79 74 55 33 55 92 94 64 97 81 94 86 87 75 86 37 22 16 16 15 15 17 18 17 16 16 18 21 21 20 20 26 39 45 79
46 42 36 33 28 29 25 35 31 29 26 20 18 23 56 73 78 78 88 83 83 100 93 86 98 60 19 17 17 16 18 19 19 19 21 24 23 23 25 28 80 56 75

GFSSE_700_rhum_288.txt.gz
RH
40 30 9 8 9 8 11 16 52 46 32 51 41 84 83 71 68 41 15 10 7 6 5 5 5 4 3 6 5 6 19 42 24 12 50 71 62 39 68 74 60 57 54
39 33 14 10 8 9 11 14 39 46 56 27 46 73 88 84 71 48 20 8 6 6 5 5 4 4 3 3 4 6 9 13 24 48 69 66 58 56 78 65 70 66 62
40 37 34 11 8 9 11 13 28 59 64 44 32 64 83 85 69 48 21 8 6 5 5 5 4 4 3 3 3 4 5 7 12 27 46 40 70 74 71 79 73 67 58
36 35 38 23 8 8 10 13 17 27 55 63 36 53 71 76 57 41 14 7 6 5 5 4 4 4 4 3 4 4 4 4 6 11 16 24 60 82 82 76 77 75 22
33 32 36 35 18 8 10 12 14 18 23 35 41 48 49 65 75 66 45 6 5 5 5 5 4 3 4 3 4 4 4 4 5 11 14 20 85 80 79 77 76 18 15
35 35 35 38 34 13 9 12 13 13 13 17 15 48 60 72 78 72 86 11 4 5 6 5 4 3 3 4 4 4 4 4 4 7 12 51 93 81 79 47 16 9 7
37 39 39 40 38 25 10 11 13 13 12 11 12 30 57 72 47 53 24 8 5 4 6 6 4 3 2 3 4 4 4 4 4 5 15 78 95 64 26 10 9 7 6
40 43 42 43 43 32 14 10 13 14 11 9 8 10 14 21 28 27 19 8 5 4 5 6 5 4 2 2 3 4 4 5 5 4 7 24 66 56 10 7 6 6 6
37 41 42 42 41 35 21 10 12 14 12 9 7 7 7 8 8 10 8 5 4 4 5 6 5 4 3 2 3 4 4 4 4 4 5 6 12 6 6 6 6 6 7
35 41 41 40 38 35 30 14 11 14 14 11 8 6 6 6 6 5 5 4 4 4 5 6 6 5 4 3 2 3 4 4 3 4 5 6 6 6 6 6 6 6 7
28 26 33 41 40 36 33 21 12 11 15 12 9 8 7 6 6 6 5 5 4 4 4 6 6 6 5 4 3 3 3 3 3 4 5 6 6 6 6 6 6 7 8
28 24 28 37 43 45 39 31 22 14 11 12 10 9 8 6 6 6 5 5 5 4 4 6 7 6 6 5 4 3 3 3 4 5 5 6 6 6 6 7 7 8 8
18 17 20 24 42 46 46 41 35 26 14 14 11 10 10 9 7 5 4 4 4 4 4 6 7 7 6 6 6 6 5 5 5 5 6 6 6 6 7 7 8 8 9
20 18 24 30 42 48 47 46 44 39 26 15 14 12 12 12 11 9 6 5 4 4 4 6 7 8 7 7 6 6 6 6 5 6 7 7 15 11 8 8 8 9 9
22 23 23 30 32 32 31 34 43 45 43 23 17 14 13 12 13 13 12 9 7 5 5 6 7 8 8 8 7 7 7 6 6 8 9 10 68 19 10 9 9 9 9
24 23 25 25 29 28 24 22 23 38 48 47 24 18 14 13 13 13 14 13 11 8 7 6 7 8 8 8 8 8 8 7 8 9 14 60 51 20 10 10 10 10 10
26 23 24 26 31 37 36 50 53 29 57 55 44 26 18 15 14 13 14 14 13 11 9 8 7 8 9 8 8 8 8 8 9 15 78 76 25 28 10 10 11 11 11
27 27 29 31 29 51 88 90 90 94 78 95 66 52 29 20 16 14 14 14 12 12 11 9 8 8 9 9 9 9 9 9 10 11 41 30 17 16 11 11 11 12 12
30 30 30 34 46 51 69 83 95 97 98 80 87 91 61 33 22 17 15 14 12 10 10 10 9 8 9 9 10 9 9 10 10 11 13 31 21 15 12 13 13 12 14
31 36 41 36 41 48 43 71 90 100 100 96 98 88 97 74 52 30 18 15 13 11 9 8 8 8 9 9 10 10 10 10 10 11 13 18 16 14 14 13 17 15 15
32 31 33 36 33 48 53 60 79 91 100 100 99 95 98 76 78 76 37 18 15 14 12 9 8 8 8 9 10 11 10 10 11 12 13 16 36 17 17 16 21 24 20
41 37 34 32 32 36 51 73 75 92 98 100 96 97 99 96 90 86 73 44 21 16 15 13 10 9 8 9 11 12 11 11 11 12 13 14 16 19 22 44 33 36 26
36 41 37 35 32 32 43 59 89 96 99 97 91 93 82 86 75 76 71 75 64 32 18 15 13 11 10 10 12 12 12 11 12 12 13 13 15 23 66 41 66 79 55
26 28 33 36 36 28 39 38 68 78 90 87 100 92 92 99 99 79 67 72 78 78 63 24 17 15 13 12 12 12 12 13 16 14 15 15 15 16 22 59 78 100 97
43 35 23 22 29 32 28 37 52 62 86 96 100 89 99 100 99 97 89 80 92 80 85 82 67 23 16 14 13 13 13 14 16 16 16 18 18 19 23 38 95 98 92
47 36 29 26 25 29 30 31 34 43 60 85 89 88 94 98 100 90 88 100 98 94 87 84 82 78 62 20 16 15 14 14 17 18 19 20 20 22 25 44 88 89 97

GFSSE_700_rhum_294.txt.gz
RH
47 38 28 12 12 9 13 47 49 53 51 48 50 75 77 56 33 14 13 9 22 79 58 66 90 86 32 6 5 5 5 5 6 9 13 22 48 66 67 54 66 71 46
43 40 33 12 11 9 14 46 49 52 40 47 74 83 75 65 44 26 12 8 6 9 14 44 20 27 29 82 19 30 20 12 25 45 54 59 73 68 74 56 52 72 32
48 41 37 12 11 9 13 32 50 47 35 47 62 88 86 78 51 33 17 9 6 5 5 4 4 6 10 17 15 17 25 46 70 55 55 77 73 68 68 68 64 50 28
41 38 36 20 10 9 12 21 42 44 50 42 42 83 88 85 67 52 17 8 6 5 5 4 4 4 7 10 10 13 16 26 26 27 50 63 67 71 70 78 48 21 8
37 36 35 32 10 9 10 14 25 44 46 53 40 63 86 81 56 36 16 8 7 6 5 4 4 3 4 6 7 7 6 6 8 13 36 59 72 77 78 66 25 12 6
37 37 35 36 24 9 9 12 18 34 52 57 54 50 72 68 64 36 44 25 7 6 5 4 3 4 3 5 5 5 5 5 7 10 28 72 76 73 75 35 16 8 6
40 39 38 36 33 22 9 11 15 32 37 45 50 45 58 70 69 66 63 36 12 6 6 4 3 3 4 4 5 4 5 4 6 12 56 88 79 84 63 30 11 7 6
44 42 41 39 37 33 24 11 13 19 27 34 23 34 57 72 81 82 70 61 17 6 6 5 4 3 3 4 4 4 4 4 5 23 78 84 82 83 40 16 8 7 6
49 45 45 43 40 38 36 24 11 15 18 16 14 17 72 86 80 82 74 35 12 6 6 6 5 3 3 3 4 4 4 4 5 12 67 87 93 57 19 10 7 6 7
41 47 51 47 45 43 42 36 17 12 14 14 11 15 73 83 77 70 59 27 9 5 5 6 5 4 3 3 4 4 4 5 5 6 22 60 81 16 9 7 6 6 7
12 28 42 43 45 45 45 42 26 12 11 13 11 9 12 31 37 29 19 14 8 5 4 5 6 5 4 3 3 4 4 4 5 5 7 22 30 13 7 7 6 7 7
43 38 47 41 47 43 42 44 39 20 11 11 12 10 8 7 7 8 6 5 5 5 4 5 6 6 5 4 3 4 4 4 5 4 5 8 8 8 7 7 7 7 7
30 50 56 48 34 35 37 43 42 35 17 12 11 12 10 8 6 5 5 5 5 5 4 4 6 6 6 5 4 3 3 4 4 3 6 6 6 8 7 7 7 7 8
29 36 48 50 46 35 46 44 40 44 33 19 13 14 12 9 8 6 6 6 5 5 5 4 5 6 6 6 5 4 4 3 3 3 6 6 7 6 7 7 8 8 8
9 35 54 54 48 50 44 41 29 25 45 39 21 14 15 11 9 8 6 5 5 5 5 4 5 6 6 6 6 6 5 5 4 6 6 6 7 7 7 8 8 8 9
10 12 40 54 46 49 47 44 33 34 49 55 42 24 14 13 11 10 9 7 5 5 4 5 4 6 7 7 6 6 6 6 6 6 6 7 8 10 9 9 9 9 9
16 16 30 44 49 50 45 47 51 64 58 54 49 46 28 16 13 11 11 11 9 5 4 5 4 6 7 7 7 7 7 6 7 7 9 11 19 16 21 10 10 10 10
19 16 20 35 48 50 48 50 51 55 48 38 36 45 48 33 18 13 12 12 12 10 7 5 5 6 7 7 8 7 7 7 7 8 13 25 97 80 31 18 14 10 10
27 19 20 27 37 44 47 55 47 51 40 38 33 26 36 48 33 18 14 12 13 13 12 9 7 6 7 7 8 8 8 8 8 10 19 42 93 99 73 24 22 14 12
46 20 21 25 38 45 47 52 46 46 44 40 45 37 36 44 48 33 19 14 14 13 14 13 10 8 8 8 8 9 9 9 9 22 59 89 100 99 85 34 27 16 15
50 50 34 29 39 49 55 57 53 45 45 46 56 84 65 44 52 49 29 20 15 14 14 14 12 10 9 9 9 9 9 10 10 11 13 56 67 72 54 26 14 15 16
46 52 50 43 52 62 60 52 48 50 42 42 77 99 97 92 83 63 52 34 22 15 14 14 12 12 11 10 9 10 10 10 9 11 12 13 14 23 26 32 18 16 18
40 50 53 45 52 76 82 67 57 58 55 47 79 98 97 100 100 89 65 62 44 22 16 14 12 11 10 10 10 10 10 9 10 11 11 14 17 13 21 22 20 23 28
42 46 52 55 51 60 98 78 72 51 47 46 57 76 93 99 100 98 97 86 74 54 26 17 14 12 11 10 10 9 9 9 11 12 13 14 18 16 16 22 17 22 20
70 57 52 56 57 67 52 99 78 79 53 52 50 48 90 99 82 100 99 97 83 68 68 36 18 15 13 12 11 10 10 10 10 12 14 15 14 15 16 16 18 19 21
85 78 67 56 58 58 85 68 99 75 71 54 45 51 52 80 100 87 100 99 96 79 72 80 44 21 18 16 14 12 12 12 11 12 12 13 17 17 17 17 17 19 35

GFSSE_700_rhum_297.txt.gz
RH
51 39 33 17 15 10 13 39 56 51 52 57 68 68 59 30 17 12 10 68 90 79 84 49 7 4 5 5 5 5 5 6 10 11 17 53 58 60 56 68 58 34 32
48 41 34 17 15 11 15 43 50 56 51 42 69 77 71 43 21 13 8 19 78 39 76 91 66 6 9 9 16 18 10 22 38 32 51 70 72 63 50 54 50 20 34
54 45 36 14 13 11 14 42 48 53 45 48 82 81 73 61 32 18 10 8 7 13 45 44 14 68 66 29 27 22 30 65 63 69 67 74 74 63 66 60 38 12 7
49 44 36 18 12 10 12 25 42 47 41 50 65 91 80 70 50 33 13 7 6 5 5 5 5 13 17 22 28 53 48 50 46 53 67 66 66 71 73 36 15 6 5
43 45 36 28 10 9 11 16 30 41 48 49 42 84 91 81 60 35 12 15 9 5 4 4 4 7 10 7 8 9 10 15 24 37 51 73 79 79 65 22 9 6 5
38 45 37 35 20 9 10 13 20 33 43 49 51 58 89 76 52 26 20 14 9 5 4 4 4 4 6 5 4 4 6 8 13 21 48 78 83 75 39 15 8 6 5
38 46 42 37 32 16 10 11 16 40 33 52 54 51 70 70 66 46 71 11 7 6 5 4 4 4 4 5 4 4 4 5 8 16 58 71 80 66 40 17 8 6 6
39 47 46 40 37 29 17 11 13 21 34 44 52 54 55 71 76 70 63 37 8 6 6 5 4 4 4 4 4 4 4 5 7 25 90 72 86 63 40 15 7 6 6
33 42 48 44 40 36 30 20 13 15 23 28 43 52 49 70 84 82 69 38 9 6 6 6 5 3 4 4 4 5 5 5 7 21 54 74 82 61 24 11 6 6 6
10 42 49 49 46 41 36 33 22 14 15 22 21 16 32 63 84 88 89 42 11 7 5 6 5 4 3 3 3 4 5 4 6 9 32 59 69 34 15 8 6 6 7
27 25 47 54 52 47 43 42 37 24 12 13 15 11 17 72 84 83 79 63 19 8 5 5 6 5 4 3 3 4 4 4 5 7 9 25 51 15 9 7 7 7 7
37 37 51 54 54 49 50 48 48 37 22 12 13 12 11 45 73 69 45 29 11 7 5 5 6 6 5 3 3 3 4 4 5 5 5 8 15 11 7 7 7 7 7
18 35 42 45 55 54 54 53 52 52 39 17 12 14 11 9 9 14 15 10 6 5 5 5 5 6 5 4 3 3 3 4 4 5 5 6 10 8 7 7 7 7 8
8 23 44 48 53 63 41 40 48 54 54 34 16 16 14 12 9 8 7 6 5 5 5 5 5 6 6 5 5 4 3 3 3 4 5 5 6 7 7 7 8 8 8
13 9 25 49 62 61 51 46 39 42 46 50 49 23 15 15 12 10 8 6 6 6 5 5 4 5 6 6 6 5 4 4 3 3 4 5 6 6 7 7 8 8 8
18 14 12 34 65 79 69 59 47 42 35 34 47 63 31 17 14 11 9 8 6 6 6 5 5 4 6 7 6 6 5 5 5 5 5 6 6 6 8 8 8 8 9
9 15 15 15 35 69 79 64 56 48 49 55 42 43 62 37 17 14 10 9 9 6 5 5 5 4 5 6 7 7 6 6 6 6 6 6 7 8 8 9 9 8 9
4 3 15 18 17 41 71 73 65 59 50 61 57 42 44 53 36 18 13 11 11 10 8 5 5 5 5 6 7 7 7 7 6 7 7 8 12 37 15 18 16 11 9
12 7 20 30 22 23 48 65 68 70 72 66 68 53 28 42 51 38 22 14 12 12 11 9 6 5 5 6 7 8 8 7 7 8 10 16 25 28 57 33 22 26 12
21 13 7 13 35 40 34 48 63 68 65 66 68 61 40 25 34 49 41 22 14 13 12 12 11 8 6 6 8 8 8 8 8 8 12 19 28 91 100 91 52 31 26
8 21 10 15 22 34 42 53 59 65 68 61 64 64 51 29 22 24 49 38 21 15 13 13 13 12 10 8 8 8 8 9 9 10 12 59 67 85 97 85 24 42 36
7 15 32 19 26 30 39 43 58 61 68 59 64 60 56 46 44 30 29 54 34 23 16 14 14 14 13 11 9 9 10 10 10 11 15 32 33 48 45 54 51 27 24
14 18 33 40 43 40 44 40 88 76 76 68 68 68 60 60 75 84 54 56 64 42 25 17 15 15 14 13 12 10 10 10 10 11 11 19 30 20 33 33 30 24 26
18 30 23 41 48 72 50 58 60 100 87 70 59 62 66 57 72 92 76 80 81 74 55 30 19 16 14 13 12 11 10 12 12 11 12 12 13 13 13 20 24 22 30
16 36 48 34 52 77 99 60 95 74 100 80 95 57 58 57 66 100 94 95 89 77 85 77 38 19 15 13 12 11 11 10 11 12 12 12 13 15 13 17 18 19 22
34 34 24 40 45 63 93 97 63 93 90 100 99 93 58 59 60 85 98 97 96 90 80 90 76 50 23 16 13 12 11 12 11 11 12 13 15 18 18 19 18 18 18